EN

Hourly Weather Pápateszér

Today, 7 March, Sunday

Time Temperature Precipitation Wind Pressure Humidity
00:00 -1°C° 0 mm 2 mps 756 mmHg 48%
01:00 -1°C° 0 mm 2 mps 756 mmHg 49%
02:00 -1°C° 0 mm 2 mps 755 mmHg 50%
03:00 -2°C° 0 mm 2 mps 755 mmHg 51%
04:00 -2°C° 0 mm 2 mps 754 mmHg 53%
05:00 -2°C° 0 mm 2 mps 754 mmHg 54%
06:00 -2°C° 0 mm 2 mps 754 mmHg 55%
07:00 -2°C° 0 mm 2 mps 754 mmHg 56%
08:00 0°C° 0 mm 3 mps 753 mmHg 51%
09:00 +1°C° 0 mm 4 mps 753 mmHg 45%
10:00 +3°C° 0 mm 4 mps 753 mmHg 39%
11:00 +4°C° 0 mm 4 mps 752 mmHg 39%
12:00 +5°C° 0 mm 4 mps 751 mmHg 39%
13:00 +5°C° 0 mm 4 mps 751 mmHg 39%
14:00 +5°C° 0 mm 4 mps 750 mmHg 40%
15:00 +6°C° 0 mm 4 mps 749 mmHg 42%
16:00 +7°C° 0 mm 3 mps 748 mmHg 43%
17:00 +4°C° 0 mm 3 mps 748 mmHg 48%
18:00 +3°C° 0 mm 3 mps 748 mmHg 53%
19:00 +2°C° 0 mm 2 mps 747 mmHg 58%
20:00 +2°C° 0 mm 2 mps 747 mmHg 59%
21:00 +2°C° 0 mm 2 mps 747 mmHg 60%
22:00 +1°C° 0 mm 2 mps 747 mmHg 61%
23:00 +1°C° 0 mm 2 mps 747 mmHg 61%

Tomorrow, 8 March, Monday

Time Temperature Precipitation Wind Pressure Humidity
00:00 +1°C° 0 mm 2 mps 747 mmHg 61%
01:00 +1°C° 0 mm 2 mps 746 mmHg 62%
02:00 +1°C° 0 mm 2 mps 746 mmHg 63%
03:00 +1°C° 0 mm 1 mps 746 mmHg 65%
04:00 +1°C° 0 mm 1 mps 746 mmHg 66%
05:00 +1°C° 0 mm 1 mps 746 mmHg 66%
06:00 +1°C° 0 mm 1 mps 746 mmHg 66%
07:00 +1°C° 0 mm 1 mps 746 mmHg 67%
08:00 +2°C° 0 mm 2 mps 746 mmHg 62%
09:00 +3°C° 0 mm 4 mps 747 mmHg 57%
10:00 +3°C° 0 mm 5 mps 747 mmHg 53%
11:00 +5°C° 0 mm 5 mps 747 mmHg 51%
12:00 +6°C° 0 mm 5 mps 747 mmHg 50%
13:00 +6°C° 0 mm 5 mps 747 mmHg 48%
14:00 +6°C° 0 mm 5 mps 747 mmHg 49%
15:00 +6°C° 0 mm 5 mps 747 mmHg 50%
16:00 +6°C° 0 mm 4 mps 746 mmHg 51%
17:00 +5°C° 0 mm 3 mps 747 mmHg 58%
18:00 +3°C° 0 mm 3 mps 747 mmHg 64%
19:00 +3°C° 0 mm 2 mps 747 mmHg 70%
20:00 +2°C° 0 mm 2 mps 748 mmHg 72%
21:00 +3°C° 0 mm 1 mps 748 mmHg 74%
22:00 +2°C° 0 mm 1 mps 748 mmHg 76%
23:00 +2°C° 0 mm 1 mps 749 mmHg 76%

Day after tomorrow, 9 March, Tuesday

Time Temperature Precipitation Wind Pressure Humidity
00:00 +2°C° 0 mm 1 mps 749 mmHg 76%
01:00 +1°C° 0 mm 1 mps 749 mmHg 75%
02:00 +1°C° 0 mm 1 mps 748 mmHg 75%
03:00 +1°C° 0 mm 1 mps 748 mmHg 74%
04:00 0°C° 0 mm 1 mps 748 mmHg 74%
05:00 +1°C° 0 mm 1 mps 748 mmHg 74%
06:00 +1°C° 0 mm 1 mps 748 mmHg 74%
07:00 +1°C° 0 mm 1 mps 748 mmHg 74%
08:00 +2°C° 0 mm 1 mps 749 mmHg 66%
09:00 +4°C° 0 mm 1 mps 749 mmHg 59%
10:00 +5°C° 0 mm 1 mps 749 mmHg 51%
11:00 +6°C° 0 mm 1 mps 749 mmHg 50%
12:00 +5°C° 0 mm 0 mps 749 mmHg 49%
13:00 +6°C° 0 mm 0 mps 748 mmHg 48%
14:00 +6°C° 0 mm 0 mps 748 mmHg 49%
15:00 +6°C° 0 mm 0 mps 748 mmHg 50%
16:00 +6°C° 0 mm 0 mps 747 mmHg 50%
17:00 +5°C° 0 mm 0 mps 747 mmHg 54%
18:00 +5°C° 0 mm 1 mps 748 mmHg 58%
19:00 +4°C° 0 mm 1 mps 748 mmHg 62%
20:00 +4°C° 0 mm 1 mps 748 mmHg 62%
21:00 +4°C° 0 mm 1 mps 748 mmHg 63%
22:00 +4°C° 0 mm 1 mps 748 mmHg 63%
23:00 +4°C° 0 mm 1 mps 748 mmHg 68%

10 March, Wednesday

Time Temperature Precipitation Wind Pressure Humidity
00:00 +3°C° 0 mm 1 mps 748 mmHg 72%
01:00 +3°C° 0 mm 1 mps 748 mmHg 76%
02:00 +3°C° 0 mm 1 mps 748 mmHg 81%
03:00 +3°C° 0 mm 1 mps 748 mmHg 85%
04:00 +2°C° 0 mm 1 mps 748 mmHg 90%
05:00 +2°C° 0.1 mm 2 mps 748 mmHg 91%
06:00 +2°C° 0.1 mm 2 mps 748 mmHg 93%
07:00 +3°C° 0.1 mm 2 mps 749 mmHg 95%
08:00 +2°C° 0.1 mm 3 mps 749 mmHg 90%
09:00 +3°C° 0.1 mm 4 mps 749 mmHg 84%
10:00 +4°C° 0.1 mm 4 mps 750 mmHg 79%
11:00 +5°C° 0 mm 4 mps 750 mmHg 73%
12:00 +6°C° 0 mm 4 mps 750 mmHg 67%
13:00 +6°C° 0 mm 4 mps 750 mmHg 62%
14:00 +7°C° 0 mm 3 mps 749 mmHg 61%
15:00 +8°C° 0 mm 2 mps 749 mmHg 60%
16:00 +8°C° 0 mm 2 mps 749 mmHg 59%
17:00 +8°C° 0 mm 1 mps 749 mmHg 64%
18:00 +7°C° 0 mm 1 mps 749 mmHg 69%
19:00 +6°C° 0 mm 1 mps 749 mmHg 74%
20:00 +5°C° 0 mm 1 mps 750 mmHg 75%
21:00 +4°C° 0 mm 2 mps 750 mmHg 76%
22:00 +4°C° 0 mm 2 mps 750 mmHg 78%
23:00 +2°C° 0 mm 3 mps 750 mmHg 78%

11 March, Thursday

Time Temperature Precipitation Wind Pressure Humidity
00:00 +2°C° 0 mm 3 mps 750 mmHg 79%
01:00 +2°C° 0 mm 3 mps 749 mmHg 79%
02:00 +1°C° 0 mm 4 mps 749 mmHg 79%
03:00 +1°C° 0 mm 4 mps 749 mmHg 78%
04:00 +1°C° 0 mm 4 mps 748 mmHg 77%
05:00 +2°C° 0 mm 5 mps 748 mmHg 75%
06:00 +2°C° 0 mm 5 mps 748 mmHg 74%
07:00 +2°C° 0 mm 5 mps 748 mmHg 72%
08:00 +3°C° 0 mm 5 mps 748 mmHg 67%
09:00 +5°C° 0 mm 6 mps 748 mmHg 62%
10:00 +7°C° 0 mm 6 mps 747 mmHg 57%
11:00 +8°C° 0 mm 6 mps 747 mmHg 55%
12:00 +9°C° 0 mm 6 mps 746 mmHg 52%
13:00 +10°C° 0 mm 6 mps 746 mmHg 49%
14:00 +10°C° 0 mm 6 mps 746 mmHg 50%
15:00 +10°C° 0 mm 6 mps 745 mmHg 51%
16:00 +11°C° 0 mm 6 mps 745 mmHg 52%
17:00 +10°C° 0 mm 6 mps 744 mmHg 56%
18:00 +9°C° 0 mm 6 mps 744 mmHg 60%
19:00 +9°C° 0 mm 6 mps 744 mmHg 64%
20:00 +8°C° 0 mm 7 mps 744 mmHg 64%
21:00 +8°C° 0 mm 7 mps 743 mmHg 65%
22:00 +8°C° 0 mm 7 mps 743 mmHg 65%
23:00 +8°C° 0 mm 7 mps 743 mmHg 67%

12 March, Friday

Time Temperature Precipitation Wind Pressure Humidity
00:00 +7°C° 0 mm 6 mps 742 mmHg 70%
01:00 +7°C° 0 mm 5 mps 741 mmHg 72%
02:00 +7°C° 0 mm 5 mps 741 mmHg 72%
03:00 +7°C° 0 mm 5 mps 741 mmHg 72%
04:00 +7°C° 0 mm 5 mps 741 mmHg 72%
05:00 +7°C° 0.3 mm 4 mps 741 mmHg 77%
06:00 +7°C° 0.3 mm 3 mps 742 mmHg 82%
07:00 +8°C° 0.3 mm 1 mps 742 mmHg 87%
08:00 +8°C° 0.3 mm 3 mps 743 mmHg 81%
09:00 +8°C° 0.3 mm 5 mps 743 mmHg 74%
10:00 +8°C° 0.3 mm 6 mps 744 mmHg 67%
11:00 +9°C° 0.1 mm 6 mps 744 mmHg 63%
12:00 +9°C° 0.1 mm 7 mps 744 mmHg 60%
13:00 +10°C° 0.1 mm 7 mps 744 mmHg 56%
14:00 +10°C° 0.1 mm 6 mps 744 mmHg 59%
15:00 +10°C° 0.1 mm 5 mps 744 mmHg 61%
16:00 +10°C° 0.1 mm 4 mps 744 mmHg 63%
17:00 +8°C° 0.1 mm 4 mps 744 mmHg 72%
18:00 +8°C° 0.1 mm 3 mps 745 mmHg 80%
19:00 +7°C° 0.1 mm 3 mps 745 mmHg 89%
20:00 +7°C° 0 mm 3 mps 745 mmHg 88%
21:00 +7°C° 0 mm 3 mps 746 mmHg 88%
22:00 +7°C° 0 mm 3 mps 746 mmHg 87%
23:00 +6°C° 0 mm 2 mps 746 mmHg 87%
Show more

We Need Your Consent

Meteoprog and our Service Providers may store and access personal data such as cookies, device identifiers or other similar technologies on your device and process such data to personalise content and ads, as well as provide social media features and to analyse the traffic.

  • Store and/or access information on your device

    Cookies, device identifiers or other information can be stored or accessed on your device for the purposes indicated above.

  • Personalised ads and content, ad and content measurement, audience insights, and products development

    Ads and content can be personalised based on a profile. More data can be added to better personalise ads and content. Ad and content performance can be measured. Insights about the audience who saw the ads and content can be derived. Such data can be used to develop or improve user’s experience, systems and software.

By clicking ‘I Agree’ you will allow the use of indicated cookies, device identifiers, web beacons or other similar technologies. Your settings can be changed in the browser on your device.

For certain purposes, legitimate interests may be relied on, rather than consent. You can read more about this in our Privacy and Cookie Policy.